Change the Weather History Date:

Monday, February 24, 2014

  Actual Average Record
Temperature  
Mean Temperature 42 °F -  
Max Temperature 44 °F 51 °F 63 °F (2005)
Min Temperature 39 °F 37 °F 25 °F (1962)
Degree Days  
Heating Degree Days 24    
Moisture  
Dew Point 38 °F    
Average Humidity 87    
Maximum Humidity 93    
Minimum Humidity 81    
Precipitation  
Precipitation 0.39 in - - ()
Sea Level Pressure  
Sea Level Pressure 30.06 in    
Wind  
Wind Speed 4 mph (NW)    
Max Wind Speed 8 mph    
Max Gust Speed -    
Visibility 4 miles    
Events Rain    
Averages and records for this station are not official NWS values.
T = Trace of Precipitation, MM = Missing Value Source: NWS Daily Summary

Daily Weather History Graph

Daily Weather History Graph

Search for Another Location

Airport or City:

Trip Planner

Search our weather history database for the weather conditions in past years. The results will help you decide how hot, cold, wet, or windy it might be!

Date:

Astronomy

Feb. 24, 2014 Rise Set
Actual Time 6:58 AM PST 5:46 PM PST
Civil Twilight 6:27 AM PST 6:17 PM PST
Nautical Twilight 5:52 AM PST 6:53 PM PST
Astronomical Twilight 5:16 AM PST 7:29 PM PST
Moon 3:15 AM PST (2/24) 12:40 PM PST (2/24)
Length of Visible Light 11h 50m
Length of Day
10h 48m
Waning Crescent, 27% of the Moon is Illuminated
Feb 24
Waning Crescent
Mar 1
New
Mar 8
First Quarter
Mar 16
Full
Mar 23
Last Quarter

Hourly Weather History & Observations

Time (PST) Temp. Windchill Dew Point Humidity Pressure Visibility Wind Dir Wind Speed Gust Speed Precip Events Conditions
12:53 AM 39.0 °F 35.7 °F 36.0 °F 89% 30.06 in 5.0 mi NW 4.6 mph - 0.01 in   Overcast
1:53 AM 39.0 °F - 36.0 °F 89% 30.07 in 6.0 mi Calm Calm - N/A   Overcast
2:53 AM 39.0 °F 36.8 °F 36.0 °F 89% 30.06 in 7.0 mi NNW 3.5 mph - N/A   Overcast
3:53 AM 39.9 °F 37.8 °F 36.0 °F 86% 30.06 in 10.0 mi North 3.5 mph - N/A   Overcast
4:53 AM 39.9 °F - 36.0 °F 86% 30.06 in 4.0 mi Calm Calm - N/A   Overcast
5:53 AM 39.9 °F 37.8 °F 36.0 °F 86% 30.06 in 3.0 mi NNW 3.5 mph - 0.01 in Rain Light Rain
6:53 AM 39.9 °F 37.8 °F 36.0 °F 86% 30.04 in 3.0 mi NNW 3.5 mph - 0.00 in   Overcast
7:29 AM 39.2 °F 35.9 °F 37.4 °F 93% 30.05 in 2.0 mi NW 4.6 mph - 0.00 in Rain Light Rain
7:31 AM 39.2 °F 35.9 °F 37.4 °F 93% 30.05 in 2.0 mi NW 4.6 mph - 0.00 in Rain Light Rain
7:53 AM 39.9 °F 37.8 °F 37.0 °F 89% 30.06 in 2.0 mi NW 3.5 mph - 0.01 in Rain Light Rain
8:53 AM 41.0 °F 39.0 °F 37.0 °F 86% 30.06 in 3.0 mi NNW 3.5 mph - 0.05 in Rain Light Rain
9:53 AM 41.0 °F - 37.0 °F 86% 30.06 in 4.0 mi Calm Calm - 0.11 in Rain Light Rain
10:34 AM 41.0 °F 39.0 °F 37.4 °F 87% 30.07 in 5.0 mi Variable 3.5 mph - 0.05 in Rain Light Rain
10:53 AM 41.0 °F 38.0 °F 37.9 °F 89% 30.06 in 9.0 mi NNW 4.6 mph - 0.06 in Rain Light Rain
11:53 AM 43.0 °F 39.5 °F 37.9 °F 82% 30.06 in 7.0 mi NW 5.8 mph - 0.02 in Rain Light Rain
12:53 PM 43.0 °F 38.8 °F 39.9 °F 89% 30.05 in 7.0 mi WNW 6.9 mph - 0.03 in Rain Light Rain
1:22 PM 44.6 °F 41.4 °F 39.2 °F 81% 30.04 in 5.0 mi NNW 5.8 mph - 0.01 in Rain Light Rain
1:53 PM 43.0 °F 40.3 °F 39.9 °F 89% 30.04 in 5.0 mi NW 4.6 mph - 0.02 in Rain Light Rain
2:53 PM 44.1 °F 41.5 °F 39.9 °F 85% 30.04 in 4.0 mi WNW 4.6 mph - 0.01 in   Overcast
3:09 PM 44.6 °F 43.1 °F 39.2 °F 81% 30.05 in 2.5 mi NW 3.5 mph - 0.01 in Rain Light Rain
3:22 PM 44.6 °F 43.1 °F 39.2 °F 81% 30.05 in 3.0 mi NW 3.5 mph - 0.01 in Rain Light Rain
3:53 PM 43.0 °F 41.3 °F 39.9 °F 89% 30.05 in 4.0 mi NW 3.5 mph - 0.01 in   Overcast
4:53 PM 44.1 °F 39.5 °F 39.9 °F 85% 30.05 in 3.0 mi NW 8.1 mph - 0.01 in Rain Light Rain
5:33 PM 42.8 °F 40.1 °F 39.2 °F 87% 30.06 in 2.5 mi NW 4.6 mph - 0.01 in Rain Light Rain
5:42 PM 44.6 °F 43.1 °F 39.2 °F 81% 30.06 in 3.0 mi NW 3.5 mph - 0.01 in   Overcast
5:53 PM 43.0 °F 40.3 °F 41.0 °F 93% 30.06 in 2.5 mi NW 4.6 mph - 0.01 in   Overcast
6:53 PM 43.0 °F 41.3 °F 41.0 °F 93% 30.07 in 2.5 mi NNW 3.5 mph - N/A   Overcast
7:46 PM 44.6 °F 43.1 °F 39.2 °F 81% 30.07 in 2.5 mi North 3.5 mph - 0.01 in Rain Light Rain
7:53 PM 44.1 °F - 39.9 °F 85% 30.07 in 5.0 mi Calm Calm - 0.01 in   Overcast
8:53 PM 43.0 °F 40.3 °F 39.0 °F 86% 30.08 in 5.0 mi NW 4.6 mph - N/A   Overcast
9:53 PM 43.0 °F 41.3 °F 39.9 °F 89% 30.10 in 5.0 mi NW 3.5 mph - 0.01 in   Overcast
10:53 PM 42.1 °F 40.2 °F 39.0 °F 89% 30.11 in 4.0 mi NW 3.5 mph - 0.00 in Rain Light Rain
11:53 PM 42.1 °F 39.2 °F 39.0 °F 89% 30.12 in 7.0 mi NNW 4.6 mph - 0.01 in   Overcast